{"data":{"norad_id":51741,"intl_designator":"2022-016AD","name":"STARLINK-3520","alt_names":[],"object_type":"PAYLOAD","status":"ACTIVE","operator":null,"country":"US","launch_date":"2022-02-21","launch_site_code":"AFETR","launch_vehicle":null,"mission":null,"orbit_class":"UNKNOWN","rcs_meters":null,"size_class":null,"mass_kg":null,"dimensions":null,"purposes":["comms"],"wikipedia_slug":null,"has_3d_model":false,"image_url":null,"decayed_at":null,"tle_current":{"epoch":"2026-05-24T22:48:52.024032Z","epoch_age_seconds":89801,"freshness":"FRESH","line1":"1 51741U 22016AD  26144.95060213 -.00000305  00000+0 -10998-5 0  9993","line2":"2 51741  53.2146 336.7825 0001176  81.2738 278.8387 15.08844106235076","mean_motion":15.08844106,"eccentricity":0.0001176,"inclination_deg":53.2146,"raan_deg":336.7825,"arg_perigee_deg":81.2738,"mean_anomaly_deg":278.8387,"bstar":-1.0998e-6,"rev_number":23507,"period_min":95.437294964653,"perigee_km":538.91729733538,"apogee_km":540.54437985101,"semimajor_km":6917.8678385932,"source":"CELESTRAK","updated_at":"2026-05-25T13:38:16.943875Z"}}}